timestamp,wind_dir_avg,wind_spd_max_dir,wind_spd_avg,wind_spd_gust,battery_voltage,lat,long
2019-01-16 03:30:00+00:00,347.0,334.0,12.09,13.61,,47.59359,-54.27349
2019-01-16 03:40:00+00:00,341.0,332.0,10.26,11.58,,47.59359,-54.27349
2019-01-16 03:50:00+00:00,338.0,336.0,10.72,12.67,,47.59359,-54.27349
2019-01-16 04:00:00+00:00,339.0,338.0,11.4,13.56,,47.59359,-54.27349
2019-01-16 04:10:00+00:00,358.0,342.0,12.18,14.54,,47.59359,-54.27349
2019-01-16 04:20:00+00:00,350.0,346.0,11.66,13.92,,47.59359,-54.27349
2019-01-16 04:30:00+00:00,350.0,357.0,10.49,13.81,,47.59359,-54.27349
2019-01-16 04:40:00+00:00,350.0,353.0,11.24,12.75,,47.59359,-54.27349
2019-01-16 04:50:00+00:00,353.0,351.0,9.93,13.07,,47.59359,-54.27349
2019-01-16 05:00:00+00:00,348.0,349.0,8.97,10.17,,47.59359,-54.27349
2019-01-16 05:10:00+00:00,347.0,352.0,9.43,12.17,,47.59359,-54.27349
2019-01-16 05:20:00+00:00,346.0,345.0,8.8,10.56,,47.59359,-54.27349
2019-01-16 05:30:00+00:00,357.0,4.0,10.35,12.71,,47.59359,-54.27349
2019-01-16 05:40:00+00:00,347.0,349.0,10.08,12.13,,47.59359,-54.27349
2019-01-16 05:50:00+00:00,356.0,359.0,10.33,13.21,,47.59359,-54.27349
2019-01-16 06:00:00+00:00,352.0,350.0,12.33,14.19,,47.59359,-54.27349
2019-01-16 06:10:00+00:00,333.0,330.0,13.06,15.29,,47.59359,-54.27349
2019-01-16 06:20:00+00:00,333.0,330.0,12.76,15.31,,47.59359,-54.27349
2019-01-16 06:30:00+00:00,351.0,336.0,11.54,13.75,,47.59359,-54.27349
2019-01-16 06:40:00+00:00,359.0,2.0,9.56,11.06,,47.59359,-54.27349
2019-01-16 06:50:00+00:00,359.0,359.0,8.71,9.68,,47.59359,-54.27349
2019-01-16 07:00:00+00:00,354.0,355.0,10.99,12.79,,47.59359,-54.27349
2019-01-16 07:10:00+00:00,350.0,350.0,10.1,11.22,,47.59359,-54.27349
2019-01-16 07:20:00+00:00,338.0,338.0,9.63,11.81,,47.59359,-54.27349
2019-01-16 07:30:00+00:00,342.0,340.0,9.44,10.6,,47.59359,-54.27349
2019-01-16 07:40:00+00:00,350.0,351.0,10.25,12.56,,47.59359,-54.27349
2019-01-16 07:50:00+00:00,348.0,348.0,8.22,8.99,,47.59359,-54.27349
2019-01-16 08:00:00+00:00,355.0,349.0,10.19,11.75,,47.59359,-54.27349
2019-01-16 08:10:00+00:00,353.0,350.0,7.64,9.95,,47.59359,-54.27349
2019-01-16 08:20:00+00:00,349.0,5.0,7.75,9.77,,47.59359,-54.27349
2019-01-16 08:30:00+00:00,349.0,353.0,8.46,9.45,,47.59359,-54.27349
2019-01-16 08:40:00+00:00,359.0,358.0,7.64,9.1,,47.59359,-54.27349
2019-01-16 08:50:00+00:00,348.0,343.0,6.48,7.74,,47.59359,-54.27349
2019-01-16 09:00:00+00:00,351.0,348.0,5.9,6.51,,47.59359,-54.27349
2019-01-16 09:10:00+00:00,338.0,331.0,6.56,7.99,,47.59359,-54.27349
2019-01-16 09:20:00+00:00,324.0,321.0,7.03,7.95,,47.59359,-54.27349
2019-01-16 09:30:00+00:00,324.0,320.0,8.62,10.49,,47.59359,-54.27349
2019-01-16 09:40:00+00:00,336.0,333.0,8.27,9.49,,47.59359,-54.27349
2019-01-16 09:50:00+00:00,334.0,328.0,7.2,9.01,,47.59359,-54.27349
2019-01-16 10:00:00+00:00,339.0,324.0,5.68,8.3,,47.59359,-54.27349
2019-01-16 10:10:00+00:00,350.0,349.0,6.18,7.12,,47.59359,-54.27349
2019-01-16 10:20:00+00:00,348.0,345.0,5.65,6.35,,47.59359,-54.27349
2019-01-16 10:30:00+00:00,17.0,17.0,5.76,7.03,,47.59359,-54.27349
2019-01-16 10:40:00+00:00,337.0,339.0,4.59,6.41,,47.59359,-54.27349
2019-01-16 10:50:00+00:00,359.0,359.0,6.97,8.04,,47.59359,-54.27349
2019-01-16 11:00:00+00:00,358.0,0.0,7.68,8.81,,47.59359,-54.27349
2019-01-16 11:10:00+00:00,342.0,339.0,7.2,8.19,,47.59359,-54.27349
2019-01-16 11:20:00+00:00,351.0,352.0,6.53,7.44,,47.59359,-54.27349
2019-01-16 11:30:00+00:00,3.0,5.0,6.84,8.08,,47.59359,-54.27349
2019-01-16 11:40:00+00:00,357.0,358.0,4.97,6.47,,47.59359,-54.27349
2019-01-16 11:50:00+00:00,354.0,1.0,5.6,6.45,,47.59359,-54.27349
2019-01-16 12:00:00+00:00,7.0,14.0,5.82,6.91,,47.59359,-54.27349
2019-01-16 12:10:00+00:00,359.0,3.0,5.99,6.77,,47.59359,-54.27349
2019-01-16 12:20:00+00:00,2.0,2.0,5.98,7.24,,47.59359,-54.27349
2019-01-16 12:30:00+00:00,354.0,348.0,4.05,4.96,,47.59359,-54.27349
2019-01-16 12:40:00+00:00,348.0,348.0,5.42,6.31,,47.59359,-54.27349
2019-01-16 12:50:00+00:00,0.0,351.0,3.89,4.63,,47.59359,-54.27349
2019-01-16 13:00:00+00:00,354.0,352.0,3.56,4.26,,47.59359,-54.27349
2019-01-16 13:10:00+00:00,351.0,356.0,3.36,4.21,,47.59359,-54.27349
2019-01-16 13:20:00+00:00,358.0,357.0,3.01,3.75,,47.59359,-54.27349
2019-01-16 13:30:00+00:00,347.0,348.0,3.1,3.6,,47.59359,-54.27349
2019-01-16 13:40:00+00:00,342.0,338.0,4.31,4.92,,47.59359,-54.27349
2019-01-16 13:50:00+00:00,336.0,342.0,3.29,3.95,,47.59359,-54.27349
2019-01-16 14:00:00+00:00,7.0,9.0,2.06,2.51,,47.59359,-54.27349
2019-01-16 14:10:00+00:00,341.0,349.0,2.06,2.46,,47.59359,-54.27349
2019-01-16 14:20:00+00:00,7.0,6.0,2.86,3.54,,47.59359,-54.27349
2019-01-16 14:30:00+00:00,342.0,349.0,2.11,2.44,,47.59359,-54.27349
2019-01-16 14:40:00+00:00,7.0,4.0,2.09,3.19,,47.59359,-54.27349
2019-01-16 14:50:00+00:00,359.0,5.0,2.87,3.87,,47.59359,-54.27349
2019-01-16 15:00:00+00:00,359.0,0.0,3.9,4.7,,47.59359,-54.27349
2019-01-16 15:10:00+00:00,348.0,337.0,3.47,4.64,,47.59359,-54.27349
2019-01-16 15:20:00+00:00,351.0,349.0,3.42,4.1,,47.59359,-54.27349
2019-01-16 15:30:00+00:00,356.0,355.0,2.72,3.8,,47.59359,-54.27349
2019-01-16 15:40:00+00:00,359.0,347.0,1.46,2.16,,47.59359,-54.27349
2019-01-16 15:50:00+00:00,18.0,10.0,1.9,2.69,,47.59359,-54.27349
2019-01-16 16:00:00+00:00,355.0,358.0,1.11,1.56,,47.59359,-54.27349
2019-01-16 16:10:00+00:00,18.0,5.0,1.32,1.91,,47.59359,-54.27349
2019-01-16 16:20:00+00:00,6.0,8.0,1.2,1.8,,47.59359,-54.27349
2019-01-16 16:30:00+00:00,359.0,8.0,1.65,2.04,,47.59359,-54.27349
2019-01-16 16:40:00+00:00,289.0,315.0,0.41,0.69,,47.59359,-54.27349
2019-01-16 16:50:00+00:00,246.0,262.0,0.32,0.63,,47.59359,-54.27349
2019-01-16 17:00:00+00:00,216.0,228.0,0.84,1.07,,47.59359,-54.27349
2019-01-16 17:10:00+00:00,226.0,231.0,2.19,2.98,,47.59359,-54.27349
2019-01-16 17:20:00+00:00,221.0,235.0,2.66,3.33,,47.59359,-54.27349
2019-01-16 17:30:00+00:00,216.0,213.0,1.9,2.66,,47.59359,-54.27349
2019-01-16 17:40:00+00:00,222.0,230.0,1.47,2.01,,47.59359,-54.27349
2019-01-16 17:50:00+00:00,233.0,235.0,2.08,2.56,,47.59359,-54.27349
2019-01-16 18:00:00+00:00,228.0,224.0,2.4,3.24,,47.59359,-54.27349
2019-01-16 18:10:00+00:00,229.0,227.0,2.0,2.47,,47.59359,-54.27349
2019-01-16 18:20:00+00:00,231.0,236.0,1.99,2.37,,47.59359,-54.27349
2019-01-16 18:30:00+00:00,159.0,138.0,1.76,2.25,,47.59359,-54.27349
2019-01-16 18:40:00+00:00,153.0,167.0,1.21,1.48,,47.59359,-54.27349
2019-01-16 18:50:00+00:00,253.0,253.0,3.6,4.43,,47.59359,-54.27349
2019-01-16 19:00:00+00:00,247.0,235.0,3.56,4.19,,47.59359,-54.27349
2019-01-16 19:10:00+00:00,266.0,261.0,3.71,4.91,,47.59359,-54.27349
2019-01-16 19:20:00+00:00,263.0,261.0,3.65,5.45,,47.59359,-54.27349
2019-01-16 19:30:00+00:00,275.0,274.0,4.62,5.72,,47.59359,-54.27349
2019-01-16 19:40:00+00:00,265.0,266.0,4.85,5.6,,47.59359,-54.27349
2019-01-16 19:50:00+00:00,267.0,267.0,4.72,5.45,,47.59359,-54.27349
2019-01-16 20:00:00+00:00,245.0,244.0,4.02,4.83,,47.59359,-54.27349
2019-01-16 20:10:00+00:00,267.0,264.0,4.1,4.68,,47.59359,-54.27349
2019-01-16 20:20:00+00:00,262.0,261.0,3.14,3.94,,47.59359,-54.27349
2019-01-16 20:30:00+00:00,263.0,269.0,4.66,5.51,,47.59359,-54.27349
2019-01-16 20:40:00+00:00,265.0,269.0,4.75,5.3,,47.59359,-54.27349
2019-01-16 20:50:00+00:00,266.0,272.0,4.56,5.43,,47.59359,-54.27349
2019-01-16 21:00:00+00:00,266.0,263.0,5.71,6.56,,47.59359,-54.27349
2019-01-16 21:10:00+00:00,276.0,283.0,5.73,6.9,,47.59359,-54.27349
2019-01-16 21:20:00+00:00,270.0,267.0,5.91,6.56,,47.59359,-54.27349
2019-01-16 21:30:00+00:00,278.0,280.0,5.54,6.34,,47.59359,-54.27349
2019-01-16 21:40:00+00:00,275.0,277.0,5.45,6.84,,47.59359,-54.27349
2019-01-16 21:50:00+00:00,283.0,280.0,6.9,7.85,,47.59359,-54.27349
2019-01-16 22:00:00+00:00,279.0,280.0,6.76,7.6,,47.59359,-54.27349
2019-01-16 22:10:00+00:00,274.0,265.0,5.67,6.92,,47.59359,-54.27349
2019-01-16 22:20:00+00:00,265.0,264.0,6.27,7.13,,47.59359,-54.27349
2019-01-16 22:30:00+00:00,264.0,269.0,5.9,6.98,,47.59359,-54.27349
2019-01-16 22:40:00+00:00,250.0,250.0,7.36,8.66,,47.59359,-54.27349
2019-01-16 22:50:00+00:00,260.0,265.0,6.07,6.89,,47.59359,-54.27349
2019-01-16 23:00:00+00:00,272.0,272.0,6.88,7.86,,47.59359,-54.27349
2019-01-16 23:10:00+00:00,262.0,261.0,5.43,6.41,,47.59359,-54.27349
2019-01-16 23:20:00+00:00,261.0,262.0,4.5,5.2,,47.59359,-54.27349
2019-01-16 23:30:00+00:00,255.0,257.0,4.4,5.06,,47.59359,-54.27349
2019-01-16 23:40:00+00:00,253.0,244.0,3.82,4.61,,47.59359,-54.27349
2019-01-16 23:50:00+00:00,248.0,251.0,3.4,4.04,,47.59359,-54.27349
